When you browse on this site, cookies collect data to enhance your experience and personalize the content and advertising you see.
Visit our Privacy Policy to learn more. By continuing to use the site, you agree to this use of cookies and data.
  • In Lithuania
  • List of Countries
  • For 7 days
  • Water Temperature
  • Weather Map
  • Weather Widgets
  • user-avatar
    Login

    Hourly Weather Innsbruck

    Today, 11 December, Wednesday

    Time Temperature Precipitation Wind Pressure Humidity
    00:00 -12°C° 0 mm 2 mps 593 mmHg 38%
    01:00 -9°C° 0 mm 2 mps 594 mmHg 27%
    02:00 -9°C° 0 mm 2 mps 593 mmHg 27%
    03:00 -8°C° 0 mm 2 mps 593 mmHg 26%
    04:00 -8°C° 0 mm 2 mps 592 mmHg 26%
    05:00 -8°C° 0 mm 2 mps 592 mmHg 26%
    06:00 -6°C° 0 mm 1 mps 592 mmHg 26%
    07:00 -7°C° 0 mm 2 mps 592 mmHg 26%
    08:00 -4°C° 0 mm 1 mps 592 mmHg 30%
    09:00 -3°C° 0 mm 1 mps 592 mmHg 34%
    10:00 -1°C° 0 mm 1 mps 592 mmHg 39%
    11:00 0°C° 0 mm 1 mps 592 mmHg 44%
    12:00 +1°C° 0 mm 1 mps 591 mmHg 50%
    13:00 0°C° 0 mm 0 mps 591 mmHg 55%
    14:00 -1°C° 0 mm 0 mps 590 mmHg 53%
    15:00 -2°C° 0 mm 0 mps 589 mmHg 51%
    16:00 -4°C° 0 mm 0 mps 588 mmHg 48%
    17:00 -4°C° 0 mm 1 mps 587 mmHg 46%
    18:00 -4°C° 0 mm 1 mps 587 mmHg 43%
    19:00 -6°C° 0 mm 1 mps 586 mmHg 41%
    20:00 -7°C° 0 mm 1 mps 586 mmHg 42%
    21:00 -7°C° 0 mm 1 mps 586 mmHg 43%
    22:00 -7°C° 0 mm 1 mps 585 mmHg 44%
    23:00 -8°C° 0 mm 1 mps 585 mmHg 48%

    Tomorrow, 12 December, Thursday

    Time Temperature Precipitation Wind Pressure Humidity
    00:00 -8°C° 0 mm 1 mps 585 mmHg 53%
    01:00 -8°C° 0 mm 1 mps 585 mmHg 57%
    02:00 -8°C° 0.1 mm 1 mps 584 mmHg 62%
    03:00 -9°C° 0.1 mm 1 mps 584 mmHg 67%
    04:00 -9°C° 0.1 mm 1 mps 583 mmHg 71%
    05:00 -9°C° 0.3 mm 1 mps 583 mmHg 79%
    06:00 -9°C° 0.3 mm 1 mps 584 mmHg 86%
    07:00 -8°C° 0.3 mm 1 mps 584 mmHg 93%
    08:00 -8°C° 0.3 mm 1 mps 584 mmHg 91%
    09:00 -8°C° 0.3 mm 1 mps 584 mmHg 90%
    10:00 -7°C° 0.3 mm 1 mps 584 mmHg 89%
    11:00 -7°C° 0.1 mm 1 mps 584 mmHg 87%
    12:00 -6°C° 0.1 mm 1 mps 584 mmHg 86%
    13:00 -6°C° 0.1 mm 1 mps 584 mmHg 84%
    14:00 -6°C° 0.1 mm 1 mps 584 mmHg 87%
    15:00 -7°C° 0.1 mm 1 mps 583 mmHg 89%
    16:00 -8°C° 0.1 mm 1 mps 583 mmHg 92%
    17:00 -9°C° 0 mm 1 mps 582 mmHg 91%
    18:00 -10°C° 0 mm 1 mps 582 mmHg 91%
    19:00 -11°C° 0 mm 1 mps 581 mmHg 90%
    20:00 -11°C° 0 mm 1 mps 581 mmHg 87%
    21:00 -13°C° 0 mm 2 mps 580 mmHg 83%
    22:00 -13°C° 0 mm 2 mps 580 mmHg 80%
    23:00 -14°C° 0 mm 3 mps 579 mmHg 79%

    Day after tomorrow, 13 December, Friday

    Time Temperature Precipitation Wind Pressure Humidity
    00:00 -14°C° 0 mm 3 mps 578 mmHg 79%
    01:00 -14°C° 0 mm 3 mps 578 mmHg 79%
    02:00 -15°C° 0 mm 4 mps 577 mmHg 80%
    03:00 -14°C° 0 mm 4 mps 577 mmHg 80%
    04:00 -14°C° 0 mm 4 mps 576 mmHg 81%
    05:00 -14°C° 0 mm 4 mps 575 mmHg 80%
    06:00 -14°C° 0 mm 4 mps 575 mmHg 80%
    07:00 -14°C° 0 mm 4 mps 574 mmHg 80%
    08:00 -14°C° 0.1 mm 4 mps 574 mmHg 79%
    09:00 -12°C° 0.1 mm 4 mps 574 mmHg 79%
    10:00 -11°C° 0.1 mm 4 mps 574 mmHg 78%
    11:00 -10°C° 0.5 mm 3 mps 574 mmHg 82%
    12:00 -9°C° 0.5 mm 2 mps 574 mmHg 85%
    13:00 -9°C° 0.5 mm 2 mps 574 mmHg 89%
    14:00 -8°C° 0.4 mm 1 mps 574 mmHg 90%
    15:00 -8°C° 0.4 mm 1 mps 574 mmHg 91%
    16:00 -8°C° 0.4 mm 1 mps 574 mmHg 92%
    17:00 -9°C° 0.2 mm 1 mps 575 mmHg 91%
    18:00 -10°C° 0.2 mm 2 mps 575 mmHg 91%
    19:00 -12°C° 0.2 mm 2 mps 576 mmHg 90%
    20:00 -12°C° 0 mm 2 mps 576 mmHg 87%
    21:00 -12°C° 0 mm 2 mps 577 mmHg 85%
    22:00 -13°C° 0 mm 2 mps 577 mmHg 82%
    23:00 -13°C° 0 mm 2 mps 578 mmHg 80%

    14 December, Saturday

    Time Temperature Precipitation Wind Pressure Humidity
    00:00 -13°C° 0 mm 2 mps 578 mmHg 78%
    01:00 -13°C° 0 mm 2 mps 578 mmHg 76%
    02:00 -13°C° 0 mm 2 mps 579 mmHg 72%
    03:00 -13°C° 0 mm 2 mps 579 mmHg 69%
    04:00 -13°C° 0 mm 2 mps 580 mmHg 66%
    05:00 -12°C° 0 mm 2 mps 580 mmHg 65%
    06:00 -12°C° 0 mm 2 mps 581 mmHg 65%
    07:00 -12°C° 0 mm 2 mps 582 mmHg 64%
    08:00 -9°C° 0.1 mm 2 mps 583 mmHg 66%
    09:00 -7°C° 0.1 mm 2 mps 584 mmHg 69%
    10:00 -5°C° 0.1 mm 2 mps 585 mmHg 71%
    11:00 -4°C° 0 mm 2 mps 585 mmHg 72%
    12:00 -3°C° 0 mm 2 mps 586 mmHg 73%
    13:00 -2°C° 0 mm 2 mps 586 mmHg 74%
    14:00 -3°C° 0.1 mm 2 mps 586 mmHg 77%
    15:00 -4°C° 0.1 mm 2 mps 586 mmHg 79%
    16:00 -5°C° 0.1 mm 2 mps 586 mmHg 82%
    17:00 -5°C° 0.1 mm 2 mps 586 mmHg 80%
    18:00 -5°C° 0.1 mm 2 mps 587 mmHg 78%
    19:00 -5°C° 0.1 mm 2 mps 587 mmHg 76%
    20:00 -5°C° 0 mm 2 mps 587 mmHg 75%
    21:00 -5°C° 0 mm 2 mps 587 mmHg 73%
    22:00 -5°C° 0 mm 2 mps 588 mmHg 71%
    23:00 -6°C° 0 mm 2 mps 588 mmHg 70%

    15 December, Sunday

    Time Temperature Precipitation Wind Pressure Humidity
    00:00 -6°C° 0 mm 2 mps 588 mmHg 69%
    01:00 -6°C° 0 mm 2 mps 588 mmHg 68%
    02:00 -6°C° 0 mm 2 mps 588 mmHg 68%
    03:00 -6°C° 0 mm 2 mps 588 mmHg 68%
    04:00 -6°C° 0 mm 2 mps 588 mmHg 69%
    05:00 -6°C° 0 mm 2 mps 588 mmHg 68%
    06:00 -7°C° 0 mm 2 mps 588 mmHg 68%
    07:00 -7°C° 0 mm 2 mps 588 mmHg 68%
    08:00 -6°C° 0 mm 2 mps 589 mmHg 69%
    09:00 -5°C° 0 mm 2 mps 589 mmHg 69%
    10:00 -4°C° 0 mm 2 mps 590 mmHg 69%
    11:00 -3°C° 0 mm 2 mps 590 mmHg 72%
    12:00 -2°C° 0 mm 2 mps 591 mmHg 75%
    13:00 -1°C° 0 mm 2 mps 591 mmHg 78%
    14:00 0°C° 0 mm 1 mps 591 mmHg 79%
    15:00 -1°C° 0 mm 1 mps 591 mmHg 81%
    16:00 -2°C° 0 mm 1 mps 591 mmHg 82%
    17:00 -3°C° 0 mm 1 mps 591 mmHg 81%
    18:00 -4°C° 0 mm 1 mps 591 mmHg 80%
    19:00 -4°C° 0 mm 1 mps 591 mmHg 78%
    20:00 -4°C° 0 mm 1 mps 592 mmHg 77%
    21:00 -4°C° 0 mm 1 mps 592 mmHg 76%
    22:00 -4°C° 0 mm 1 mps 592 mmHg 74%
    23:00 -7°C° 0 mm 2 mps 592 mmHg 76%

    16 December, Monday

    Time Temperature Precipitation Wind Pressure Humidity
    00:00 -7°C° 0 mm 2 mps 592 mmHg 77%
    01:00 -7°C° 0 mm 2 mps 592 mmHg 79%
    02:00 -7°C° 0 mm 2 mps 592 mmHg 80%
    03:00 -7°C° 0 mm 2 mps 592 mmHg 81%
    04:00 -9°C° 0 mm 3 mps 592 mmHg 82%
    05:00 -8°C° 0 mm 3 mps 592 mmHg 83%
    06:00 -8°C° 0 mm 3 mps 592 mmHg 84%
    07:00 -8°C° 0 mm 3 mps 592 mmHg 85%
    08:00 -7°C° 0 mm 3 mps 592 mmHg 84%
    09:00 -7°C° 0 mm 4 mps 592 mmHg 84%
    10:00 -5°C° 0 mm 4 mps 593 mmHg 83%
    11:00 -5°C° 0 mm 4 mps 593 mmHg 83%
    12:00 -4°C° 0 mm 4 mps 593 mmHg 83%
    13:00 -3°C° 0 mm 4 mps 593 mmHg 83%
    14:00 -3°C° 0 mm 4 mps 592 mmHg 84%
    15:00 -4°C° 0 mm 4 mps 592 mmHg 85%
    16:00 -4°C° 0 mm 4 mps 592 mmHg 86%
    17:00 -4°C° 0 mm 4 mps 592 mmHg 86%
    18:00 -5°C° 0 mm 4 mps 592 mmHg 86%
    19:00 -5°C° 0 mm 4 mps 591 mmHg 86%
    20:00 -5°C° 0.1 mm 4 mps 591 mmHg 86%
    21:00 -5°C° 0.1 mm 4 mps 591 mmHg 86%
    22:00 -5°C° 0.1 mm 4 mps 591 mmHg 85%
    23:00 -5°C° 0.1 mm 4 mps 591 mmHg 85%
    Show more